When you browse on this site, cookies collect data to enhance your experience and personalize the content and advertising you see.
Visit our Privacy Policy to learn more. By continuing to use the site, you agree to this use of cookies and data.
  • en France
  • Liste des pays
  • À 7 jours
  • Température de l'eau
  • Carte satellitaire
  • Carte météo
  • Widgets météo
  • user-avatar
    Se connecter

    Météo par heure à Koumassi

    Ce jour, 16 Juillet, Mardi

    Heure Température Précipitation Vent Pression Humidité
    00:00 +26°C° 0 mm 2 m/s 756 mmHg 88%
    01:00 +26°C° 0.1 mm 2 m/s 756 mmHg 88%
    02:00 +26°C° 0.1 mm 2 m/s 756 mmHg 89%
    03:00 +25°C° 0.1 mm 2 m/s 756 mmHg 89%
    04:00 +25°C° 0 mm 2 m/s 756 mmHg 89%
    05:00 +25°C° 0 mm 2 m/s 756 mmHg 90%
    06:00 +25°C° 0 mm 1 m/s 757 mmHg 90%
    07:00 +26°C° 0 mm 2 m/s 757 mmHg 86%
    08:00 +27°C° 0 mm 2 m/s 757 mmHg 83%
    09:00 +27°C° 0 mm 2 m/s 758 mmHg 79%
    10:00 +28°C° 0 mm 2 m/s 758 mmHg 78%
    11:00 +28°C° 0 mm 2 m/s 757 mmHg 77%
    12:00 +28°C° 0 mm 2 m/s 757 mmHg 76%
    13:00 +28°C° 0.1 mm 2 m/s 756 mmHg 77%
    14:00 +28°C° 0.1 mm 2 m/s 756 mmHg 79%
    15:00 +28°C° 0.1 mm 3 m/s 755 mmHg 80%
    16:00 +28°C° 0 mm 3 m/s 756 mmHg 81%
    17:00 +27°C° 0 mm 3 m/s 756 mmHg 82%
    18:00 +27°C° 0 mm 3 m/s 756 mmHg 84%
    19:00 +27°C° 0 mm 3 m/s 757 mmHg 85%
    20:00 +27°C° 0 mm 3 m/s 757 mmHg 85%
    21:00 +26°C° 0 mm 3 m/s 758 mmHg 86%
    22:00 +26°C° 0 mm 3 m/s 758 mmHg 87%
    23:00 +26°C° 0 mm 3 m/s 758 mmHg 88%

    Demain, 17 Juillet, Mercredi

    Heure Température Précipitation Vent Pression Humidité
    00:00 +26°C° 0 mm 3 m/s 758 mmHg 89%
    01:00 +25°C° 0 mm 3 m/s 757 mmHg 89%
    02:00 +25°C° 0 mm 2 m/s 757 mmHg 88%
    03:00 +25°C° 0 mm 2 m/s 757 mmHg 88%
    04:00 +25°C° 0 mm 2 m/s 757 mmHg 89%
    05:00 +25°C° 0 mm 2 m/s 758 mmHg 89%
    06:00 +25°C° 0 mm 1 m/s 758 mmHg 90%
    07:00 +26°C° 0 mm 2 m/s 759 mmHg 86%
    08:00 +27°C° 0 mm 2 m/s 759 mmHg 83%
    09:00 +28°C° 0 mm 3 m/s 759 mmHg 79%
    10:00 +29°C° 0.3 mm 3 m/s 759 mmHg 75%
    11:00 +30°C° 0.3 mm 3 m/s 758 mmHg 72%
    12:00 +32°C° 0.3 mm 4 m/s 758 mmHg 69%
    13:00 +30°C° 2.1 mm 4 m/s 757 mmHg 71%
    14:00 +30°C° 2.1 mm 4 m/s 757 mmHg 73%
    15:00 +30°C° 2.1 mm 4 m/s 756 mmHg 75%
    16:00 +29°C° 1.9 mm 3 m/s 756 mmHg 79%
    17:00 +28°C° 1.9 mm 3 m/s 756 mmHg 82%
    18:00 +27°C° 1.9 mm 3 m/s 756 mmHg 86%
    19:00 +27°C° 0 mm 3 m/s 757 mmHg 87%
    20:00 +26°C° 0 mm 3 m/s 757 mmHg 88%
    21:00 +26°C° 0 mm 3 m/s 757 mmHg 89%
    22:00 +26°C° 0 mm 3 m/s 757 mmHg 89%
    23:00 +26°C° 0 mm 3 m/s 757 mmHg 90%

    Après-demain, 18 Juillet, Jeudi

    Heure Température Précipitation Vent Pression Humidité
    00:00 +25°C° 0 mm 4 m/s 757 mmHg 90%
    01:00 +25°C° 0 mm 3 m/s 756 mmHg 90%
    02:00 +25°C° 0 mm 3 m/s 756 mmHg 91%
    03:00 +25°C° 0 mm 2 m/s 756 mmHg 91%
    04:00 +25°C° 0 mm 2 m/s 757 mmHg 91%
    05:00 +25°C° 0 mm 2 m/s 757 mmHg 91%
    06:00 +25°C° 0 mm 3 m/s 757 mmHg 91%
    07:00 +26°C° 0 mm 3 m/s 758 mmHg 87%
    08:00 +27°C° 0 mm 3 m/s 758 mmHg 82%
    09:00 +28°C° 0 mm 4 m/s 758 mmHg 77%
    10:00 +29°C° 0 mm 4 m/s 758 mmHg 74%
    11:00 +30°C° 0 mm 4 m/s 758 mmHg 71%
    12:00 +32°C° 0 mm 4 m/s 757 mmHg 68%
    13:00 +32°C° 0.7 mm 4 m/s 756 mmHg 69%
    14:00 +32°C° 0.7 mm 4 m/s 756 mmHg 70%
    15:00 +32°C° 0.7 mm 4 m/s 755 mmHg 71%
    16:00 +30°C° 0.8 mm 4 m/s 755 mmHg 75%
    17:00 +29°C° 0.8 mm 4 m/s 755 mmHg 79%
    18:00 +28°C° 0.8 mm 3 m/s 755 mmHg 83%
    19:00 +28°C° 0.1 mm 4 m/s 756 mmHg 85%
    20:00 +27°C° 0.1 mm 4 m/s 757 mmHg 87%
    21:00 +26°C° 0.1 mm 4 m/s 757 mmHg 89%
    22:00 +26°C° 0 mm 4 m/s 757 mmHg 89%
    23:00 +26°C° 0 mm 4 m/s 757 mmHg 90%

    19 Juillet, Vendredi

    Heure Température Précipitation Vent Pression Humidité
    00:00 +26°C° 0 mm 3 m/s 757 mmHg 90%
    01:00 +26°C° 0.1 mm 3 m/s 757 mmHg 90%
    02:00 +26°C° 0.1 mm 3 m/s 757 mmHg 90%
    03:00 +26°C° 0.1 mm 3 m/s 757 mmHg 91%
    04:00 +26°C° 0 mm 3 m/s 757 mmHg 90%
    05:00 +26°C° 0 mm 3 m/s 757 mmHg 89%
    06:00 +26°C° 0 mm 3 m/s 757 mmHg 88%
    07:00 +26°C° 0 mm 3 m/s 758 mmHg 87%
    08:00 +26°C° 0 mm 3 m/s 758 mmHg 85%
    09:00 +26°C° 0 mm 3 m/s 759 mmHg 84%
    10:00 +26°C° 0 mm 4 m/s 758 mmHg 83%
    11:00 +27°C° 0 mm 4 m/s 758 mmHg 82%
    12:00 +27°C° 0 mm 4 m/s 757 mmHg 80%
    13:00 +27°C° 0 mm 4 m/s 757 mmHg 80%
    14:00 +28°C° 0 mm 3 m/s 756 mmHg 79%
    15:00 +28°C° 0 mm 3 m/s 756 mmHg 78%
    16:00 +28°C° 0.1 mm 2 m/s 756 mmHg 80%
    17:00 +27°C° 0.1 mm 2 m/s 756 mmHg 83%
    18:00 +27°C° 0.1 mm 2 m/s 756 mmHg 85%
    19:00 +26°C° 1.1 mm 2 m/s 757 mmHg 87%
    20:00 +26°C° 1.1 mm 2 m/s 757 mmHg 89%
    21:00 +26°C° 1.1 mm 2 m/s 758 mmHg 91%
    22:00 +26°C° 1.7 mm 3 m/s 758 mmHg 91%
    23:00 +26°C° 1.7 mm 3 m/s 758 mmHg 91%

    20 Juillet, Samedi

    Heure Température Précipitation Vent Pression Humidité
    00:00 +25°C° 1.7 mm 3 m/s 758 mmHg 91%
    01:00 +25°C° 0.8 mm 3 m/s 758 mmHg 91%
    02:00 +25°C° 0.8 mm 3 m/s 757 mmHg 92%
    03:00 +25°C° 0.8 mm 3 m/s 757 mmHg 92%
    04:00 +25°C° 0.6 mm 3 m/s 757 mmHg 92%
    05:00 +25°C° 0.6 mm 3 m/s 758 mmHg 92%
    06:00 +25°C° 0.6 mm 3 m/s 758 mmHg 92%
    07:00 +25°C° 0.2 mm 4 m/s 758 mmHg 91%
    08:00 +25°C° 0.2 mm 4 m/s 758 mmHg 90%
    09:00 +25°C° 0.2 mm 4 m/s 759 mmHg 90%
    10:00 +25°C° 0.2 mm 4 m/s 759 mmHg 89%
    11:00 +25°C° 0.2 mm 4 m/s 758 mmHg 89%
    12:00 +26°C° 0.2 mm 3 m/s 758 mmHg 89%
    13:00 +26°C° 0 mm 3 m/s 758 mmHg 88%
    14:00 +26°C° 0 mm 3 m/s 757 mmHg 88%
    15:00 +26°C° 0 mm 2 m/s 757 mmHg 87%
    16:00 +26°C° 0 mm 2 m/s 757 mmHg 87%
    17:00 +26°C° 0 mm 2 m/s 757 mmHg 88%
    18:00 +26°C° 0 mm 2 m/s 757 mmHg 88%
    19:00 +26°C° 0 mm 2 m/s 757 mmHg 89%
    20:00 +25°C° 0 mm 2 m/s 757 mmHg 91%
    21:00 +25°C° 0 mm 2 m/s 758 mmHg 92%
    22:00 +25°C° 0 mm 2 m/s 758 mmHg 92%
    23:00 +25°C° 0 mm 3 m/s 758 mmHg 93%

    21 Juillet, Dimanche

    Heure Température Précipitation Vent Pression Humidité
    00:00 +25°C° 0 mm 3 m/s 757 mmHg 94%
    01:00 +25°C° 0 mm 3 m/s 757 mmHg 94%
    02:00 +25°C° 0 mm 3 m/s 757 mmHg 94%
    03:00 +25°C° 0 mm 3 m/s 757 mmHg 94%
    04:00 +25°C° 0 mm 2 m/s 757 mmHg 94%
    05:00 +24°C° 0 mm 2 m/s 757 mmHg 95%
    06:00 +24°C° 0 mm 2 m/s 757 mmHg 95%
    07:00 +25°C° 0 mm 2 m/s 758 mmHg 90%
    08:00 +27°C° 0 mm 3 m/s 758 mmHg 85%
    09:00 +28°C° 0 mm 3 m/s 759 mmHg 80%
    10:00 +29°C° 0.2 mm 4 m/s 759 mmHg 76%
    11:00 +30°C° 0.2 mm 4 m/s 758 mmHg 73%
    12:00 +32°C° 0.2 mm 4 m/s 758 mmHg 69%
    13:00 +30°C° 1.6 mm 4 m/s 757 mmHg 72%
    14:00 +30°C° 1.6 mm 5 m/s 756 mmHg 74%
    15:00 +29°C° 1.6 mm 5 m/s 756 mmHg 77%
    16:00 +28°C° 0.6 mm 5 m/s 756 mmHg 79%
    17:00 +28°C° 0.6 mm 5 m/s 756 mmHg 82%
    18:00 +27°C° 0.6 mm 5 m/s 756 mmHg 84%
    19:00 +26°C° 0 mm 5 m/s 756 mmHg 85%
    20:00 +26°C° 0 mm 5 m/s 757 mmHg 87%
    21:00 +25°C° 0 mm 4 m/s 757 mmHg 88%
    22:00 +25°C° 0 mm 4 m/s 757 mmHg 88%
    23:00 +25°C° 0 mm 4 m/s 757 mmHg 88%
    Voir plus